CAPE
0 0 0 0 0 0 0 0 0 0 10 6 0 0 0 0 0 0 0 0 0 19 627 672 438 878 734 401 352 145 24 116 267 236 53 30 35 16 20 20 37 28 62 71 237
0 0 0 0 0 0 0 0 0 0 2 0 0 0 0 0 0 0 0 0 71 575 591 651 977 989 735 356 20 35 96 256 268 311 54 26 24 4 25 0 11 21 83 157 158
0 0 0 0 0 0 0 0 0 0 0 0 0 0 0 0 0 0 0 66 455 355 331 374 754 488 612 98 228 83 143 204 406 476 246 20 61 40 0 18 2 10 119 122 173
0 0 0 0 0 0 0 0 0 0 0 0 0 0 0 0 0 0 292 344 635 687 626 188 345 52 28 23 272 322 302 421 736 503 333 43 26 37 29 11 8 14 89 156 210
0 0 0 0 0 0 0 0 0 0 0 0 0 0 0 0 0 113 701 811 243 657 205 100 27 35 151 235 400 157 312 251 243 254 185 137 32 17 9 10 12 15 107 193 197
0 0 0 0 0 0 0 0 0 0 0 0 0 0 0 0 0 9 17 59 616 346 517 75 384 12 125 127 466 34 122 64 89 264 182 129 101 43 20 41 0 27 117 195 222
0 0 0 0 0 0 0 0 0 0 0 0 0 0 0 0 51 138 120 132 899 603 744 302 418 349 159 430 389 277 29 51 46 246 97 100 36 28 47 43 17 0 105 141 138
0 0 0 0 0 0 0 0 0 0 0 0 0 0 0 9 109 150 199 295 478 562 516 351 355 488 652 315 57 6 20 37 30 133 89 109 75 44 29 57 54 36 61 130 56
0 0 0 0 0 0 0 0 0 0 0 0 0 0 25 11 109 114 144 179 256 374 817 686 520 514 323 25 0 0 3 7 19 77 49 90 77 79 37 55 38 54 51 107 125
0 0 0 0 0 0 0 0 0 0 0 0 0 0 5 39 75 174 117 266 221 861 558 410 377 236 78 10 10 17 10 4 6 13 23 24 30 68 40 70 48 61 61 98 264
0 0 0 0 0 0 0 0 0 0 0 0 0 0 0 0 10 148 216 174 298 277 249 157 69 33 11 21 50 38 7 9 21 32 40 95 72 90 106 83 108 80 69 122 209
0 0 0 0 0 0 0 0 0 0 0 0 0 0 0 0 57 164 124 52 62 119 94 100 4 7 27 44 48 57 44 59 17 56 48 95 116 49 116 164 177 127 107 302 360
0 0 0 0 0 0 0 0 0 0 0 0 0 0 0 0 0 28 35 48 69 59 118 198 41 20 47 49 50 69 70 78 103 139 133 203 138 86 199 337 282 224 212 148 99
0 0 0 0 0 0 0 0 0 0 0 0 0 0 9 26 0 0 18 52 342 161 231 202 85 12 44 98 68 82 84 78 143 166 140 209 30 5 86 130 231 408 407 343 305
0 0 0 0 0 0 0 0 0 0 0 0 0 0 24 7 56 74 75 262 215 253 131 19 97 97 50 22 97 31 43 33 178 189 135 95 131 109 24 98 178 219 307 394 476
0 0 0 0 0 0 0 0 0 0 0 0 0 0 68 142 156 175 184 184 206 258 289 161 51 12 63 60 125 41 16 29 218 113 31 0 130 63 64 103 157 222 352 473 523
0 0 0 0 0 0 0 0 0 0 0 0 0 0 48 179 145 144 183 213 276 153 101 64 0 18 27 21 26 10 0 0 0 0 0 0 122 113 76 66 150 260 408 362 335
0 0 0 0 0 0 0 0 8 0 0 0 0 57 109 217 191 193 198 200 272 285 264 125 14 19 25 19 38 23 0 0 0 0 0 0 4 26 66 135 175 213 375 46 170
0 0 0 0 0 0 3 16 4 0 0 0 33 79 171 181 111 179 231 322 349 329 329 14 30 2 15 16 15 1 0 0 0 0 0 0 3 4 24 83 133 243 255 50 234
0 0 0 0 0 22 3 1 0 1 0 0 30 50 95 91 48 79 196 217 135 111 207 115 3 0 0 0 0 23 0 0 0 0 0 0 0 0 11 118 162 206 191 15 317
0 0 0 0 0 25 4 0 0 30 54 9 1 0 0 21 53 81 95 16 75 117 146 213 0 0 0 0 0 0 0 0 0 0 0 0 0 0 0 4 122 93 31 50 675
0 0 0 0 0 14 7 2 5 2 0 0 16 14 3 27 61 18 91 0 15 152 104 129 7 0 0 0 0 0 0 0 0 0 0 0 0 0 0 0 0 55 0 96 776
0 0 0 0 0 14 13 1 0 0 0 0 0 0 13 51 0 0 0 0 0 165 10 3 0 0 0 0 0 0 0 0 0 0 0 0 0 0 0 0 0 4 3 235 930
0 1 0 0 0 0 5 0 0 0 0 0 0 0 0 1 0 0 0 0 22 170 0 0 0 0 0 0 0 0 0 0 0 0 0 0 0 0 0 0 0 0 234 688 1050
0 15 0 0 0 0 0 0 0 0 0 0 0 0 0 0 0 0 0 0 0 0 0 0 0 0 0 0 0 0 0 0 0 0 0 0 0 0 0 0 0 214 663 938 943
0 28 20 2 0 0 0 0 0 0 0 0 0 0 0 0 0 0 0 0 0 0 0 0 0 0 0 0 0 0 0 0 0 0 0 0 0 0 0 0 186 630 882 951 926
0 0 2 0 9 0 0 0 0 0 0 0 0 0 0 0 0 0 0 0 0 0 0 0 0 0 0 0 0 0 0 0 0 0 0 0 0 0 0 0 199 541 749 838 811
CIN
-0 -0 -0 -0 -0 -0 -0 -0 -0 -0 -137 -138 -0 -0 -0 -0 -0 -0 -0 -0 -0 -118 -119 -103 -106 -154 -137 -138 -235 -315 -98 -76 -53 -39 -15 -35 -19 -22 -163 -173 -83 -157 -113 -304 -274
-0 -0 -0 -0 -0 -0 -0 -0 -0 -0 -91 -0 -0 -0 -0 -0 -0 -0 -0 -0 -96 -422 -108 -154 -146 -138 -150 -202 -173 -228 -32 -73 -102 -67 -87 -10 -3 -3 -113 -0 -144 -322 -345 -309 -314
-0 -0 -0 -0 -0 -0 -0 -0 -0 -0 -0 -0 -0 -0 -0 -0 -0 -0 -0 -581 -503 -301 -83 -219 -135 -181 -150 -238 -226 -113 -32 -81 -94 -77 -61 -7 -6 -21 -0 -35 -6 -315 -318 -314 -268
-0 -0 -0 -0 -0 -0 -0 -0 -0 -0 -0 -0 -0 -0 -0 -0 -0 -0 -556 -534 -496 -144 -44 -208 -169 -231 -221 -148 -189 -142 -142 -112 -96 -99 -74 -120 -12 -11 -6 -39 -36 -65 -324 -275 -218
-0 -0 -0 -0 -0 -0 -0 -0 -0 -0 -0 -0 -0 -0 -0 -0 -0 -358 -459 -442 -94 -136 -178 -231 -246 -237 -140 -182 -180 -178 -120 -129 -77 -68 -53 -58 -74 -17 -20 -4 -16 -158 -285 -235 -214
-0 -0 -0 -0 -0 -0 -0 -0 -0 -0 -0 -0 -0 -0 -0 -0 -0 -338 -95 -54 -117 -53 -186 -260 -192 -161 -247 -200 -159 -25 -164 -52 -165 -116 -84 -92 -104 -64 -19 -19 -0 -130 -308 -259 -211
-0 -0 -0 -0 -0 -0 -0 -0 -0 -0 -0 -0 -0 -0 -0 -0 -131 -103 -105 -46 -110 -110 -148 -60 -64 -55 -248 -166 -170 -125 -26 -61 -109 -125 -67 -17 -118 -25 -29 -62 -23 -0 -13 -299 -268
-0 -0 -0 -0 -0 -0 -0 -0 -0 -0 -0 -0 -0 -0 -0 -124 -99 -98 -84 -84 -170 -179 -177 -236 -104 -132 -172 -200 -157 -39 -84 -72 -85 -64 -116 -102 -155 -26 -61 -61 -58 -52 -22 -40 -61
-0 -0 -0 -0 -0 -0 -0 -0 -0 -0 -0 -0 -0 -38 -80 -50 -74 -91 -87 -69 -57 -139 -209 -232 -203 -148 -205 -67 -10 -0 -22 -97 -65 -102 -123 -88 -80 -59 -18 -101 -65 -36 -62 -32 -57
-0 -0 -0 -0 -0 -0 -0 -0 -0 -0 -0 -0 -0 -0 -79 -74 -96 -71 -84 -91 -91 -186 -201 -165 -145 -146 -175 -109 -49 -117 -54 -7 -8 -20 -73 -127 -161 -162 -87 -57 -130 -109 -113 -68 -19
-0 -0 -0 -0 -0 -0 -0 -0 -0 -0 -0 -0 -0 -0 -0 -0 -120 -75 -69 -90 -198 -185 -137 -122 -140 -105 -38 -67 -99 -79 -114 -82 -105 -114 -17 -39 -51 -132 -210 -85 -67 -179 -186 -107 -62
-0 -0 -0 -0 -0 -0 -0 -0 -0 -0 -0 -0 -0 -0 -0 -0 -94 -70 -110 -105 -152 -135 -127 -76 -51 -20 -45 -56 -57 -44 -55 -59 -134 -155 -57 -35 -53 -125 -156 -100 -91 -115 -286 -210 -133
-0 -0 -0 -0 -0 -0 -0 -0 -0 -0 -0 -0 -0 -0 -0 -0 -0 -67 -59 -64 -30 -64 -69 -58 -47 -18 -32 -127 -141 -65 -67 -90 -81 -140 -65 -40 -58 -61 -318 -288 -226 -100 -160 -50 -65
-0 -0 -0 -0 -0 -0 -0 -0 -0 -0 -0 -0 -0 -0 -43 -45 -0 -0 -27 -16 -100 -87 -71 -75 -50 -20 -85 -90 -139 -87 -91 -168 -120 -143 -69 -79 -33 -70 -29 -43 -128 -211 -186 -202 -175
-0 -0 -0 -0 -0 -0 -0 -0 -0 -0 -0 -0 -0 -0 -49 -51 -27 -19 -22 -100 -41 -21 -81 -28 -84 -92 -33 -30 -147 -30 -49 -266 -140 -125 -80 -110 -94 -52 -167 -44 -49 -60 -69 -98 -146
-0 -0 -0 -0 -0 -0 -0 -0 -0 -0 -0 -0 -0 -0 -49 -21 -15 -20 -62 -91 -26 -39 -35 -29 -81 -7 -108 -50 -142 -78 -84 -176 -124 -149 -75 -0 -124 -61 -83 -82 -55 -56 -44 -24 -29
-0 -0 -0 -0 -0 -0 -0 -0 -0 -0 -0 -0 -0 -0 -55 -21 -21 -32 -32 -44 -41 -28 -28 -48 -0 -13 -92 -48 -33 -36 -0 -0 -0 -0 -0 -0 -178 -79 -129 -106 -80 -49 -65 -76 -112
-0 -0 -0 -0 -0 -0 -0 -0 -5 -0 -0 -0 -0 -37 -39 -37 -36 -35 -31 -34 -35 -25 -40 -34 -7 -23 -10 -52 -33 -31 -3 -0 -0 -0 -0 -0 -26 -88 -99 -97 -77 -91 -82 -270 -195
-0 -0 -0 -0 -0 -0 -34 -1 -1 -0 -0 -0 -21 -25 -35 -32 -37 -35 -26 -23 -27 -31 -26 -22 -7 -2 -2 -2 -6 -0 -0 -0 -0 -0 -0 -0 -79 -15 -187 -139 -111 -127 -142 -267 -170
-0 -0 -0 -0 -0 -14 -26 -0 -0 -1 -0 -0 -24 -20 -19 -22 -34 -58 -47 -36 -27 -39 -32 -36 -2 -0 -0 -0 -0 -12 -0 -0 -0 -0 -0 -0 -0 -0 -146 -149 -147 -160 -166 -282 -351
-0 -0 -0 -0 -0 -25 -2 -0 -0 -34 -37 -19 -2 -0 -0 -115 -94 -69 -40 -23 -47 -41 -18 -29 -15 -0 -0 -0 -0 -0 -0 -0 -0 -0 -0 -0 -0 -0 -0 -29 -125 -209 -250 -537 -178
-0 -0 -0 -0 -0 -27 -37 -2 -11 -6 -1 -0 -42 -56 -121 -106 -54 -66 -48 -0 -72 -55 -36 -33 -25 -0 -0 -0 -0 -0 -0 -0 -0 -0 -0 -0 -0 -0 -0 -0 -8 -149 -0 -423 -199
-0 -0 -0 -0 -0 -32 -42 -45 -0 -0 -0 -0 -0 -0 -153 -72 -0 -0 -0 -0 -0 -47 -84 -24 -0 -0 -0 -0 -0 -0 -0 -0 -0 -0 -0 -0 -0 -0 -0 -0 -0 -133 -46 -354 -226
-0 -10 -0 -0 -0 -0 -68 -0 -0 -0 -0 -0 -0 -0 -0 -16 -0 -0 -0 -0 -80 -31 -0 -0 -0 -0 -0 -0 -0 -0 -0 -0 -0 -0 -0 -0 -0 -0 -0 -0 -0 -0 -510 -350 -291
-0 -406 -0 -0 -0 -0 -0 -0 -0 -0 -0 -0 -0 -0 -0 -0 -0 -0 -0 -0 -0 -0 -0 -0 -0 -0 -0 -0 -0 -0 -0 -0 -0 -0 -0 -0 -0 -0 -0 -0 -0 -598 -291 -221 -223
-48 -325 -370 -81 -0 -0 -0 -0 -0 -0 -0 -0 -0 -0 -0 -0 -0 -0 -0 -0 -0 -0 -0 -0 -0 -0 -0 -0 -0 -0 -0 -0 -0 -0 -0 -0 -0 -0 -0 -0 -572 -297 -206 -197 -198
-0 -0 -333 -0 -82 -0 -0 -0 -0 -0 -0 -0 -0 -0 -0 -0 -0 -0 -0 -0 -0 -0 -0 -0 -0 -0 -0 -0 -0 -0 -0 -0 -0 -0 -0 -0 -0 -0 -0 -0 -332 -216 -203 -199 -178
Wind_Speed
nan nan nan nan nan nan nan nan nan nan nan nan nan nan nan nan nan nan nan nan nan nan 6 11 12 12 3 8 3 5 nan 10 18 16 nan nan nan nan nan nan nan nan nan nan 15
nan nan nan nan nan nan nan nan nan nan nan nan nan nan nan nan nan nan nan nan nan 11 11 17 16 14 6 7 nan nan nan 13 11 18 nan nan nan nan nan nan nan nan nan 21 19
nan nan nan nan nan nan nan nan nan nan nan nan nan nan nan nan nan nan nan nan 12 10 8 7 10 4 2 nan 4 nan 9 11 12 12 17 nan nan nan nan nan nan nan 12 14 15
nan nan nan nan nan nan nan nan nan nan nan nan nan nan nan nan nan nan 11 11 8 9 7 10 3 nan nan nan 5 4 12 5 24 17 13 nan nan nan nan nan nan nan nan 12 11
nan nan nan nan nan nan nan nan nan nan nan nan nan nan nan nan nan 12 12 5 3 4 14 4 nan nan 4 0 2 2 5 6 8 14 3 7 nan nan nan nan nan nan 13 11 10
nan nan nan nan nan nan nan nan nan nan nan nan nan nan nan nan nan nan nan nan 5 10 13 nan 7 nan 3 2 2 nan 6 nan nan 5 8 10 13 nan nan nan nan nan 12 12 12
nan nan nan nan nan nan nan nan nan nan nan nan nan nan nan nan nan 13 9 7 7 8 13 20 9 4 3 3 5 3 nan nan nan 6 nan 8 nan nan nan nan nan nan 12 14 15
nan nan nan nan nan nan nan nan nan nan nan nan nan nan nan nan 7 8 10 8 7 5 9 11 8 3 7 5 nan nan nan nan nan 13 nan 9 nan nan nan nan nan nan nan 17 nan
nan nan nan nan nan nan nan nan nan nan nan nan nan nan nan nan 7 10 8 6 3 3 2 4 8 4 4 nan nan nan nan nan nan nan nan nan nan nan nan nan nan nan nan 18 19
nan nan nan nan nan nan nan nan nan nan nan nan nan nan nan nan nan 8 7 4 6 9 3 4 7 4 nan nan nan nan nan nan nan nan nan nan nan nan nan nan nan nan nan nan 17
nan nan nan nan nan nan nan nan nan nan nan nan nan nan nan nan nan 7 4 4 2 1 1 5 nan nan nan nan nan nan nan nan nan nan nan nan nan nan 18 nan 14 nan nan 15 20
nan nan nan nan nan nan nan nan nan nan nan nan nan nan nan nan nan 3 8 nan nan 5 nan 10 nan nan nan nan nan nan nan nan nan nan nan nan 24 nan 20 21 20 21 17 19 18
nan nan nan nan nan nan nan nan nan nan nan nan nan nan nan nan nan nan nan nan nan nan 1 3 nan nan nan nan nan nan nan nan 8 8 10 12 26 nan 16 14 12 12 10 12 nan
nan nan nan nan nan nan nan nan nan nan nan nan nan nan nan nan nan nan nan nan 2 8 2 6 nan nan nan nan nan nan nan nan 8 3 7 8 nan nan nan 12 10 9 10 15 17
nan nan nan nan nan nan nan nan nan nan nan nan nan nan nan nan nan nan nan 7 3 5 1 nan nan nan nan nan nan nan nan nan 7 10 9 nan 9 10 nan nan 12 4 8 13 16
nan nan nan nan nan nan nan nan nan nan nan nan nan nan nan 13 10 10 9 12 6 3 3 2 nan nan nan nan 5 nan nan nan 6 5 nan nan 7 nan nan 8 9 6 2 8 9
nan nan nan nan nan nan nan nan nan nan nan nan nan nan nan 11 10 12 5 6 2 7 9 nan nan nan nan nan nan nan nan nan nan nan nan nan 8 3 nan nan 9 9 7 6 1
nan nan nan nan nan nan nan nan nan nan nan nan nan nan 9 14 13 12 7 3 5 9 9 8 nan nan nan nan nan nan nan nan nan nan nan nan nan nan nan 4 8 6 3 nan 9
nan nan nan nan nan nan nan nan nan nan nan nan nan nan 18 15 10 9 6 4 1 2 4 nan nan nan nan nan nan nan nan nan nan nan nan nan nan nan nan nan 16 10 5 nan 8
nan nan nan nan nan nan nan nan nan nan nan nan nan nan nan nan nan nan 8 5 8 4 8 5 nan nan nan nan nan nan nan nan nan nan nan nan nan nan nan 14 20 18 19 nan 21
nan nan nan nan nan nan nan nan nan nan nan nan nan nan nan nan nan nan nan nan nan 8 13 11 nan nan nan nan nan nan nan nan nan nan nan nan nan nan nan nan 21 nan nan nan 28
nan nan nan nan nan nan nan nan nan nan nan nan nan nan nan nan nan nan nan nan nan 14 6 6 nan nan nan nan nan nan nan nan nan nan nan nan nan nan nan nan nan nan nan nan 32
nan nan nan nan nan nan nan nan nan nan nan nan nan nan nan nan nan nan nan nan nan 16 nan nan nan nan nan nan nan nan nan nan nan nan nan nan nan nan nan nan nan nan nan 37 40
nan nan nan nan nan nan nan nan nan nan nan nan nan nan nan nan nan nan nan nan nan 13 nan nan nan nan nan nan nan nan nan nan nan nan nan nan nan nan nan nan nan nan 41 45 42
nan nan nan nan nan nan nan nan nan nan nan nan nan nan nan nan nan nan nan nan nan nan nan nan nan nan nan nan nan nan nan nan nan nan nan nan nan nan nan nan nan 30 34 36 35
nan nan nan nan nan nan nan nan nan nan nan nan nan nan nan nan nan nan nan nan nan nan nan nan nan nan nan nan nan nan nan nan nan nan nan nan nan nan nan nan 37 33 33 32 32
nan nan nan nan nan nan nan nan nan nan nan nan nan nan nan nan nan nan nan nan nan nan nan nan nan nan nan nan nan nan nan nan nan nan nan nan nan nan nan nan 38 38 37 34 34
Wind_Direction
nan nan nan nan nan nan nan nan nan nan nan nan nan nan nan nan nan nan nan nan nan nan 29 6 29 2 357 197 5 49 nan 114 91 102 nan nan nan nan nan nan nan nan nan nan 321
nan nan nan nan nan nan nan nan nan nan nan nan nan nan nan nan nan nan nan nan nan 25 41 6 357 356 357 208 nan nan nan 83 76 101 nan nan nan nan nan nan nan nan nan 302 319
nan nan nan nan nan nan nan nan nan nan nan nan nan nan nan nan nan nan nan nan 49 35 48 42 4 360 98 nan 28 nan 16 75 70 83 83 nan nan nan nan nan nan nan 330 324 336
nan nan nan nan nan nan nan nan nan nan nan nan nan nan nan nan nan nan 44 43 31 39 8 345 23 nan nan nan 31 61 68 49 73 72 63 nan nan nan nan nan nan nan nan 329 348
nan nan nan nan nan nan nan nan nan nan nan nan nan nan nan nan nan 125 80 46 311 17 26 248 nan nan 111 32 334 305 67 3 91 75 77 37 nan nan nan nan nan nan 322 345 17
nan nan nan nan nan nan nan nan nan nan nan nan nan nan nan nan nan nan nan nan 63 31 25 nan 137 nan 186 160 345 nan 25 nan nan 57 51 48 84 nan nan nan nan nan 359 355 14
nan nan nan nan nan nan nan nan nan nan nan nan nan nan nan nan nan 86 90 65 50 59 45 91 109 126 54 346 0 154 nan nan nan 6 nan 349 nan nan nan nan nan nan 32 32 31
nan nan nan nan nan nan nan nan nan nan nan nan nan nan nan nan 120 85 115 129 57 57 82 35 82 20 352 62 nan nan nan nan nan 95 nan 72 nan nan nan nan nan nan nan 42 nan
nan nan nan nan nan nan nan nan nan nan nan nan nan nan nan nan 130 104 111 102 144 92 59 353 64 128 124 nan nan nan nan nan nan nan nan nan nan nan nan nan nan nan nan 74 64
nan nan nan nan nan nan nan nan nan nan nan nan nan nan nan nan nan 100 138 93 28 35 346 280 263 234 nan nan nan nan nan nan nan nan nan nan nan nan nan nan nan nan nan nan 65
nan nan nan nan nan nan nan nan nan nan nan nan nan nan nan nan nan 107 118 181 189 19 230 300 nan nan nan nan nan nan nan nan nan nan nan nan nan nan 61 nan 75 nan nan 64 67
nan nan nan nan nan nan nan nan nan nan nan nan nan nan nan nan nan 121 287 nan nan 70 nan 181 nan nan nan nan nan nan nan nan nan nan nan nan 94 nan 72 80 68 67 63 61 63
nan nan nan nan nan nan nan nan nan nan nan nan nan nan nan nan nan nan nan nan nan nan 55 167 nan nan nan nan nan nan nan nan 99 164 137 136 119 nan 90 93 75 83 82 79 nan
nan nan nan nan nan nan nan nan nan nan nan nan nan nan nan nan nan nan nan nan 157 124 177 134 nan nan nan nan nan nan nan nan 124 157 136 142 nan nan nan 98 57 65 70 77 77
nan nan nan nan nan nan nan nan nan nan nan nan nan nan nan nan nan nan nan 234 356 57 234 nan nan nan nan nan nan nan nan nan 231 243 190 nan 187 129 nan nan 93 82 63 59 52
nan nan nan nan nan nan nan nan nan nan nan nan nan nan nan 176 166 194 199 211 197 250 175 119 nan nan nan nan 61 nan nan nan 218 248 nan nan 227 nan nan 60 111 113 81 69 70
nan nan nan nan nan nan nan nan nan nan nan nan nan nan nan 145 158 178 183 230 284 190 174 nan nan nan nan nan nan nan nan nan nan nan nan nan 259 90 nan nan 79 65 121 123 48
nan nan nan nan nan nan nan nan nan nan nan nan nan nan 151 148 157 161 207 242 212 206 165 154 nan nan nan nan nan nan nan nan nan nan nan nan nan nan nan 42 8 69 164 nan 170
nan nan nan nan nan nan nan nan nan nan nan nan nan nan 147 157 171 188 178 188 296 203 168 nan nan nan nan nan nan nan nan nan nan nan nan nan nan nan nan nan 309 336 348 nan 351
nan nan nan nan nan nan nan nan nan nan nan nan nan nan nan nan nan nan 178 177 179 172 206 186 nan nan nan nan nan nan nan nan nan nan nan nan nan nan nan 323 318 331 348 nan 321
nan nan nan nan nan nan nan nan nan nan nan nan nan nan nan nan nan nan nan nan nan 233 241 258 nan nan nan nan nan nan nan nan nan nan nan nan nan nan nan nan 334 nan nan nan 325
nan nan nan nan nan nan nan nan nan nan nan nan nan nan nan nan nan nan nan nan nan 311 296 247 nan nan nan nan nan nan nan nan nan nan nan nan nan nan nan nan nan nan nan nan 324
nan nan nan nan nan nan nan nan nan nan nan nan nan nan nan nan nan nan nan nan nan 277 nan nan nan nan nan nan nan nan nan nan nan nan nan nan nan nan nan nan nan nan nan 321 323
nan nan nan nan nan nan nan nan nan nan nan nan nan nan nan nan nan nan nan nan nan 273 nan nan nan nan nan nan nan nan nan nan nan nan nan nan nan nan nan nan nan nan 317 311 309
nan nan nan nan nan nan nan nan nan nan nan nan nan nan nan nan nan nan nan nan nan nan nan nan nan nan nan nan nan nan nan nan nan nan nan nan nan nan nan nan nan 307 302 304 310
nan nan nan nan nan nan nan nan nan nan nan nan nan nan nan nan nan nan nan nan nan nan nan nan nan nan nan nan nan nan nan nan nan nan nan nan nan nan nan nan 303 308 308 314 313
nan nan nan nan nan nan nan nan nan nan nan nan nan nan nan nan nan nan nan nan nan nan nan nan nan nan nan nan nan nan nan nan nan nan nan nan nan nan nan nan 310 316 313 306 305